CW0775 Weather Reports


time (UTC)temp
F
wind
direction
speed
knots
gust
knots
rain 1hr
in
rain 24hr
in
rain mn
in
humidity
%
barometer
mb
20260507193506 49 284 0.0 0.0 0.00 0.08 0.00 91 1015.6
20260507193005 49 284 0.0 0.0 0.00 0.08 0.00 91 1015.6
20260507191505 50 284 0.0 0.0 0.00 0.08 0.00 90 1015.6
20260507191005 50 284 0.0 0.0 0.00 0.08 0.00 90 1015.6
20260507190505 50 284 0.0 0.0 0.00 0.08 0.00 90 1015.6
20260507190005 50 284 0.0 0.0 0.00 0.08 0.00 89 1015.6
20260507184505 51 284 0.0 1.7 0.00 0.08 0.00 88 1015.6
20260507184005 51 284 0.9 1.7 0.00 0.08 0.00 88 1015.3
20260507183005 52 285 1.7 2.6 0.00 0.08 0.00 87 1015.4
20260507181505 54 285 0.0 0.0 0.00 0.08 0.00 86 1015.1
20260507180005 55 285 0.9 1.7 0.00 0.08 0.00 83 1015.1
20260507174505 55 285 0.0 0.0 0.00 0.08 0.00 81 1015.1
20260507173505 55 285 0.0 2.6 0.00 0.08 0.00 80 1015.2
20260507173005 55 286 1.7 2.6 0.00 0.08 0.00 79 1015.2
20260507170504 58 292 0.0 1.7 0.00 0.08 0.00 69 1014.9
20260507170007 58 297 1.7 4.3 0.00 0.08 0.00 68 1014.9
20260507164006 62 280 1.7 2.6 0.00 0.08 0.00 60 1014.9
20260507163505 60 239 0.0 0.0 0.00 0.08 0.00 62 1014.9
20260507163005 59 239 0.0 2.6 0.00 0.08 0.00 66 1014.9
20260507161005 60 253 0.0 1.7 0.00 0.08 0.00 65 1015.0
20260507160504 58 234 0.9 1.7 0.00 0.08 0.00 65 1014.9
20260507160005 58 286 0.9 2.6 0.00 0.08 0.00 70 1015.2
20260507154005 58 248 0.0 0.0 0.00 0.08 0.00 74 1015.2
20260507153504 57 250 0.9 2.6 0.00 0.08 0.00 73 1015.2
20260507153005 56 225 0.0 2.6 0.00 0.08 0.00 75 1015.2
20260507151505 57 289 1.7 2.6 0.00 0.08 0.00 72 1015.5
20260507150504 57 254 0.0 2.6 0.00 0.09 0.00 77 1015.2
20260507150006 57 291 0.9 4.3 0.00 0.09 0.00 77 1015.2
20260507144504 56 246 0.0 1.7 0.00 0.09 0.00 79 1015.2
20260507144005 56 271 0.9 2.6 0.00 0.09 0.00 79 1015.2
20260507143505 56 281 0.9 2.6 0.00 0.09 0.00 78 1015.2
20260507143004 56 268 0.9 4.3 0.00 0.09 0.00 79 1015.2
20260507141505 56 285 1.7 2.6 0.00 0.14 0.00 77 1015.2
20260507141004 56 273 0.9 2.6 0.00 0.14 0.00 78 1015.2
20260507140504 56 265 0.0 1.7 0.00 0.14 0.00 78 1015.2
20260507140005 55 284 0.0 6.1 0.00 0.14 0.00 79 1015.3
20260507134505 55 271 0.0 2.6 0.00 0.14 0.00 78 1015.3
20260507134004 54 285 1.7 2.6 0.00 0.14 0.00 78 1015.6
20260507133505 54 283 1.7 2.6 0.00 0.14 0.00 77 1015.3
20260507133005 54 285 2.6 6.1 0.00 0.14 0.00 79 1015.5
20260507131505 55 275 0.0 4.3 0.00 0.14 0.00 81 1015.6
20260507131004 54 275 0.9 2.6 0.00 0.14 0.00 81 1015.5
20260507130505 54 284 0.9 4.3 0.00 0.14 0.00 82 1015.6
20260507124504 55 285 2.6 4.3 0.00 0.15 0.00 78 1015.3
20260507124004 55 280 0.9 2.6 0.00 0.15 0.00 77 1015.4
20260507123504 55 310 2.6 4.3 0.00 0.16 0.00 76 1015.2
20260507123004 55 298 0.0 4.3 0.00 0.16 0.00 77 1015.2
20260507121504 55 262 0.0 6.1 0.00 0.16 0.00 78 1015.2
20260507121005 54 294 4.3 6.1 0.00 0.16 0.00 78 1015.0
20260507114504 56 279 0.9 4.3 0.00 0.16 0.00 77 1014.9
20260507114004 55 283 1.7 4.3 0.00 0.16 0.00 77 1014.9
20260507113504 54 281 3.5 6.1 0.00 0.16 0.00 80 1014.9
20260507113004 54 284 1.7 8.7 0.00 0.16 0.00 82 1014.9
20260507111506 53 308 3.5 6.1 0.00 0.16 0.00 82 1014.9
20260507111004 53 298 2.6 7.0 0.00 0.16 0.00 82 1014.9
20260507110004 52 276 2.6 11.3 0.00 0.16 0.00 83 1014.9
20260507104504 53 279 1.7 7.0 0.00 0.16 0.00 84 1014.9
20260507103505 53 279 4.3 7.0 0.00 0.16 0.00 84 1014.7
20260507103005 53 286 4.3 6.1 0.00 0.16 0.00 84 1014.7
20260507101506 51 285 1.7 6.1 0.00 0.16 0.00 86 1014.9
20260507101004 51 275 1.7 6.1 0.00 0.16 0.00 86 1014.9
20260507100504 51 286 2.6 6.1 0.00 0.16 0.00 86 1014.9
20260507100004 51 264 2.6 8.7 0.00 0.16 0.00 87 1014.7
20260507094005 51 285 1.7 4.3 0.00 0.16 0.00 86 1014.6
20260507093505 51 276 1.7 4.3 0.00 0.16 0.00 85 1014.6
20260507093006 51 274 1.7 7.0 0.00 0.16 0.00 85 1014.6
20260507091506 50 270 4.3 7.0 0.00 0.16 0.00 86 1014.6
20260507090505 50 302 2.6 7.0 0.00 0.16 0.00 86 1014.2
20260507090006 50 287 4.3 7.0 0.00 0.16 0.00 86 1014.2
20260507084505 50 286 5.2 6.1 0.00 0.16 0.00 86 1014.2
20260507084006 50 282 3.5 6.1 0.00 0.16 0.00 87 1014.1
20260507083507 50 279 4.3 7.0 0.00 0.16 0.00 87 1014.2
20260507083006 49 282 2.6 12.2 0.00 0.16 0.00 87 1014.2
20260507081506 50 280 2.6 6.1 0.00 0.16 0.00 86 1013.9
20260507080505 50 271 4.3 7.0 0.00 0.16 0.00 87 1013.9
20260507080005 50 279 2.6 6.1 0.00 0.16 0.00 86 1013.9
20260507074506 49 316 4.3 7.0 0.00 0.16 0.00 88 1013.9
20260507074005 49 283 1.7 4.3 0.00 0.16 0.00 88 1013.5
20260507073005 49 276 2.6 7.0 0.00 0.16 0.00 88 1013.5
20260507071506 49 293 2.6 7.0 0.00 0.16 0.00 87 1013.2
20260507071005 49 281 3.5 8.7 0.00 0.16 0.00 87 1013.2
20260507070506 49 263 1.7 6.1 0.00 0.16 0.00 87 1013.2
20260507070010 49 287 1.7 7.0 0.00 0.16 0.00 87 1013.2
20260507064506 49 203 2.6 8.7 0.00 0.16 0.00 90 1012.9
20260507064005 49 285 3.5 4.3 0.00 0.16 0.00 90 1013.2
20260507061006 48 280 0.9 2.6 0.00 0.16 0.00 91 1012.5
20260507060505 48 295 5.2 11.3 0.00 0.16 0.00 91 1012.3
20260507060006 48 285 6.1 13.0 0.00 0.16 0.00 90 1012.5
20260507054507 48 275 4.3 13.0 0.00 0.16 0.00 90 1012.5
20260507053506 48 326 5.2 7.0 0.00 0.16 0.00 91 1012.5
20260507053007 48 287 2.6 6.1 0.00 0.16 0.00 91 1012.2
20260507051506 48 285 0.9 2.6 0.00 0.16 0.00 92 1012.1
20260507051005 48 271 0.0 2.6 0.00 0.16 0.00 92 1011.9
20260507050506 48 271 1.7 4.3 0.00 0.16 0.00 91 1012.2
20260507044005 48 278 4.3 7.0 0.00 0.16 0.00 90 1011.9
20260507043506 48 283 2.6 4.3 0.00 0.16 0.00 90 1011.6
20260507041505 48 285 1.7 2.6 0.00 0.16 0.00 89 1011.5
20260507041006 48 293 1.7 4.3 0.00 0.16 0.00 89 1011.5
20260507040505 48 284 4.3 6.1 0.00 0.16 0.00 90 1011.5
20260507034505 49 276 2.6 6.1 0.00 0.16 0.00 90 1011.2
20260507033506 48 238 0.9 2.6 0.00 0.16 0.00 91 1011.2
20260507031505 49 274 0.0 1.7 0.00 0.16 0.00 90 1010.8
20260507031005 48 277 0.9 2.6 0.00 0.16 0.00 90 1011.0
20260507030505 49 281 0.0 0.0 0.00 0.16 0.00 91 1010.8
20260507030005 49 270 0.0 4.3 0.00 0.16 0.00 90 1011.0
20260507024505 49 282 0.9 4.3 0.00 0.16 0.00 90 1011.2
20260507024005 48 285 0.9 2.6 0.00 0.16 0.00 90 1010.8
20260507023506 49 284 1.7 2.6 0.00 0.16 0.00 91 1010.8
20260507023005 49 282 0.9 2.6 0.00 0.16 0.00 91 1010.8
20260507021506 48 278 0.0 4.3 0.00 0.16 0.00 91 1010.5
20260507021005 48 270 0.9 1.7 0.00 0.16 0.00 91 1010.5
20260507020505 49 262 0.0 0.0 0.00 0.16 0.00 92 1010.5
20260507014505 49 281 1.7 2.6 0.00 0.16 0.00 91 1010.4
20260507014005 49 290 1.7 2.6 0.00 0.16 0.00 91 1010.2
20260507013005 49 275 0.0 1.7 0.00 0.16 0.00 91 1010.4
20260507011505 49 273 0.0 1.7 0.00 0.16 0.00 91 1010.5
20260507010505 49 260 0.9 1.7 0.00 0.16 0.00 91 1010.5
20260507010005 49 234 0.9 1.7 0.00 0.16 0.00 91 1010.2
20260507004005 49 277 1.7 2.6 0.00 0.16 0.00 90 1010.2
20260507003004 49 285 0.9 2.6 0.00 0.16 0.00 90 1010.0
20260507001505 49 275 0.9 2.6 0.00 0.16 0.00 90 1010.2
20260507001005 49 285 1.7 2.6 0.00 0.16 0.00 90 1010.2
20260507000505 49 273 1.7 6.1 0.00 0.16 0.00 90 1010.2
20260507000006 49 279 2.6 8.7 0.00 0.16 0.00 90 1010.2
20260506234004 49 275 0.9 4.3 0.00 0.16 0.00 90 1009.8
20260506233505 49 265 1.7 4.3 0.00 0.16 0.00 90 1009.9
20260506233006 49 276 1.7 4.3 0.00 0.16 0.00 90 1010.2
20260506231505 49 273 3.5 7.0 0.00 0.16 0.00 90 1009.8
20260506230504 49 278 1.7 4.3 0.00 0.16 0.00 90 1009.8
20260506230005 49 288 1.7 7.0 0.00 0.16 0.00 90 1009.8
20260506224504 49 278 0.9 4.3 0.08 0.16 0.00 91 1009.8
20260506224005 49 284 0.9 2.6 0.08 0.16 0.00 91 1009.8
20260506223505 49 280 0.9 2.6 0.08 0.16 0.00 91 1009.6
20260506223005 49 287 1.7 7.0 0.08 0.16 0.00 91 1009.8
20260506221505 49 279 3.5 6.1 0.08 0.16 0.00 90 1009.5
20260506221004 49 293 2.6 4.3 0.08 0.16 0.00 90 1009.5
20260506220505 49 280 2.6 6.1 0.08 0.16 0.00 90 1009.5
20260506214505 49 279 2.6 8.7 0.00 0.08 0.08 90 1009.2
20260506214005 49 308 3.5 6.1 0.00 0.08 0.08 90 1009.5
20260506213005 49 288 4.3 7.0 0.00 0.08 0.08 90 1009.1
20260506211506 49 295 1.7 2.6 0.00 0.08 0.08 90 1009.1
20260506211005 49 304 1.7 11.3 0.00 0.08 0.08 90 1009.1
20260506210504 49 292 2.6 7.0 0.00 0.08 0.08 89 1009.1
20260506204504 50 283 1.7 4.3 0.00 0.08 0.08 90 1009.1
20260506204005 50 285 1.7 6.1 0.00 0.08 0.08 90 1008.9
20260506203505 50 317 2.6 6.1 0.00 0.08 0.08 91 1008.8
20260506203005 50 278 2.6 8.7 0.00 0.08 0.08 91 1009.0
20260506201505 50 288 4.3 6.1 0.00 0.08 0.08 91 1008.8
20260506201005 50 340 1.7 4.3 0.00 0.08 0.08 91 1009.0
20260506200504 50 317 2.6 6.1 0.00 0.08 0.08 91 1008.8
20260506200004 50 321 2.6 7.0 0.00 0.08 0.08 91 1008.8
20260506194505 51 304 2.6 8.7 0.00 0.08 0.08 91 1008.5
20260506194005 51 311 3.5 8.7 0.00 0.08 0.08 90 1008.6